This is the latest recevied weather packets stored in our database for station/object KI8L. If no packets are shown the sender has not sent any weather packets the latest 10 day(s).
| Time | Temp. | Humidity | Pressure | Rain* | Wind** | Luminosity | Snow |
|---|---|---|---|---|---|---|---|
| 1778005160 | 17.78° C | 79% | 1010.3 hPa | 0 mm | - | 118 W/m² | - |
| 1778004858 | 17.78° C | 79% | 1010.7 hPa | 0 mm | - | 50 W/m² | - |
| 1778004555 | 17.78° C | 79% | 1010.6 hPa | 0 mm | - | 47 W/m² | - |
| 1778004251 | 17.78° C | 78% | 1010.4 hPa | 0 mm | - | 71 W/m² | - |
| 1778003948 | 17.78° C | 77% | 1010.5 hPa | 0 mm | - | 70 W/m² | - |
| 1778003644 | 17.78° C | 79% | 1010.5 hPa | 0 mm | - | 86 W/m² | - |
| 1778003341 | 17.78° C | 77% | 1010.4 hPa | 0 mm | - | 112 W/m² | - |
| 1778003038 | 17.78° C | 77% | 1010.3 hPa | 0 mm | - | 90 W/m² | - |
| 1778002734 | 17.78° C | 79% | 1010.3 hPa | 0 mm | - | 157 W/m² | - |
| 1778002431 | 17.78° C | 78% | 1010.4 hPa | 0 mm | - | 54 W/m² | - |
| 1778002128 | 17.78° C | 77% | 1010.5 hPa | 0 mm | - | 87 W/m² | - |
| 1778001826 | 17.78° C | 76% | 1010.5 hPa | 0 mm | - | 47 W/m² | - |
| 1778001525 | 17.78° C | 76% | 1010.6 hPa | 0 mm | - | 50 W/m² | - |
| 1778001222 | 17.78° C | 76% | 1010.6 hPa | 0 mm | - | 66 W/m² | - |
| 1778000918 | 17.78° C | 76% | 1010.6 hPa | 0 mm | - | 100 W/m² | - |
| 1778000615 | 17.78° C | 77% | 1010.5 hPa | 0 mm | - | 74 W/m² | - |
| 1778000311 | 17.78° C | 76% | 1010.4 hPa | 0 mm | - | 91 W/m² | - |
| 1778000007 | 17.78° C | 75% | 1010.6 hPa | 0 mm | - | 71 W/m² | - |
| 1777999702 | 18.33° C | 74% | 1010.6 hPa | 0 mm | - | 71 W/m² | - |
| 1777999399 | 18.33° C | 74% | 1010.4 hPa | 0 mm | - | 63 W/m² | - |
| 1777999098 | 18.33° C | 72% | 1010.4 hPa | 0 mm | - | 57 W/m² | - |
| 1777998796 | 18.89° C | 71% | 1010.3 hPa | 0 mm | - | 59 W/m² | - |
| 1777998494 | 18.89° C | 70% | 1010.3 hPa | 0 mm | - | 73 W/m² | - |
| 1777998190 | 18.89° C | 69% | 1010.3 hPa | 0 mm | - | 81 W/m² | - |
| 1777997887 | 18.89° C | 68% | 1010.5 hPa | 0 mm | - | 132 W/m² | - |
* Rain latest hour (hover to see other rain measurements)
** Current wind speed in m/s (hover to see current wind gust speed)